Location: Newark
(40.7360°N, 74.1730°W)
Time: 23:35:16
(UTC-04:00)

ISS - All Passes

Search period start: 27 June 2016 00:00
Search period end: 07 July 2016 00:00
Orbit: 402 x 403 km, 51.6° (Epoch: 27 June)

Date Brightness Start Highest point End Pass type
(mag) Time Alt. Az. Time Alt. Az. Time Alt. Az.
27 Jun - 09:27:38 10° SW 09:30:51 60° SE 09:34:04 10° ENE daylight
27 Jun - 11:04:52 10° WNW 11:07:31 22° NNW 11:10:11 10° NNE daylight
27 Jun - 12:43:25 10° NNW 12:44:53 12° N 12:46:20 10° NNE daylight
27 Jun - 14:19:55 10° NNW 14:22:19 19° NNE 14:24:43 10° ENE daylight
27 Jun - 15:55:52 10° NW 15:59:09 88° NE 16:02:25 10° SE daylight
28 Jun - 08:35:19 10° SSW 08:38:12 30° SE 08:41:06 10° ENE daylight
28 Jun - 10:11:36 10° W 10:14:36 33° NNW 10:17:37 10° NE daylight
28 Jun - 11:50:06 10° NW 11:51:48 13° N 11:53:30 10° NNE daylight
28 Jun - 13:27:20 10° NNW 13:29:18 15° NNE 13:31:16 10° NE daylight
28 Jun - 15:03:11 10° NW 15:06:22 47° NNE 15:09:32 10° ESE daylight
28 Jun - 16:40:11 10° W 16:42:34 19° SW 16:44:59 10° S daylight
29 Jun - 07:43:37 10° S 07:45:38 16° SE 07:47:40 10° E daylight
29 Jun - 09:18:33 10° WSW 09:21:46 57° NNW 09:25:00 10° NE daylight
29 Jun - 10:56:39 10° NW 10:58:45 16° NNW 11:00:51 10° NNE daylight
29 Jun - 12:34:38 10° NNW 12:36:14 13° N 12:37:50 10° NE daylight
29 Jun - 14:10:35 10° NW 14:13:30 29° NNE 14:16:24 10° E daylight
29 Jun - 15:46:56 10° WNW 15:49:59 37° SW 15:53:01 10° SSE daylight
30 Jun - 08:25:45 10° SW 08:29:00 75° SE 08:32:16 10° ENE daylight
30 Jun - 10:03:13 10° WNW 10:05:45 20° NNW 10:08:17 10° NNE daylight
30 Jun - 11:41:42 10° NNW 11:43:09 12° N 11:44:35 10° NNE daylight
30 Jun - 13:18:01 10° NNW 13:20:32 20° NNE 13:23:05 10° ENE daylight
30 Jun - 14:54:02 10° WNW 14:57:18 76° SW 15:00:33 10° SE daylight
01 Jul - 07:33:17 10° SSW 07:36:19 36° SE 07:39:21 10° ENE daylight
01 Jul - 09:09:53 10° W 09:12:48 29° NNW 09:15:43 10° NE daylight
01 Jul - 10:48:27 10° NW 10:50:03 13° N 10:51:38 10° NNE daylight
01 Jul - 12:25:26 10° NNW 12:27:32 16° NNE 12:29:38 10° NE daylight
01 Jul - 14:01:18 10° NW 14:04:31 56° NNE 14:07:44 10° ESE daylight
01 Jul - 15:38:36 10° W 15:40:40 16° SW 15:42:43 10° S daylight
02 Jul - 06:41:20 10° S 06:43:42 19° SE 06:46:05 10° E daylight
02 Jul - 08:16:44 10° WSW 08:19:54 47° NNW 08:23:06 10° NE daylight
02 Jul - 09:54:59 10° NW 09:56:58 15° NNW 09:58:57 10° NNE daylight
02 Jul - 11:32:46 10° NNW 11:34:28 13° N 11:36:09 10° NE daylight
02 Jul - 13:08:39 10° NW 13:11:40 33° NNE 13:14:39 10° E daylight
02 Jul - 14:45:09 10° WNW 14:48:04 30° SW 14:50:58 10° SSE daylight
03 Jul - 07:23:51 10° SW 07:27:06 89° NW 07:30:23 10° NE daylight
03 Jul - 09:01:31 10° WNW 09:03:55 19° NNW 09:06:20 10° NNE daylight
03 Jul - 10:39:54 10° NNW 10:41:21 12° N 10:42:49 10° NNE daylight
03 Jul - 12:16:04 10° NNW 12:18:43 22° NNE 12:21:22 10° ENE daylight
03 Jul - 13:52:10 10° WNW 13:55:24 61° SW 13:58:36 10° SE daylight
04 Jul - 06:31:15 10° SSW 06:34:22 45° SE 06:37:31 10° ENE daylight
04 Jul - 08:08:08 10° W 08:10:56 26° NNW 08:13:45 10° NE daylight
04 Jul - 09:46:43 10° NNW 09:48:14 13° N 09:49:46 10° NNE daylight
04 Jul - 11:23:29 10° NNW 11:25:42 17° NNE 11:27:56 10° ENE daylight
04 Jul - 12:59:22 10° NW 13:02:38 68° NE 13:05:53 10° ESE daylight
04 Jul - 14:37:06 10° W 14:38:41 13° SW 14:40:16 10° SSW daylight
05 Jul - 05:39:06 10° S 05:41:44 23° SE 05:44:23 10° E daylight
05 Jul - 07:14:55 10° WSW 07:18:01 40° NNW 07:21:08 10° NE daylight
05 Jul - 08:53:17 10° NW 08:55:08 14° N 08:56:59 10° NNE daylight
05 Jul - 10:30:50 10° NNW 10:32:38 14° N 10:34:26 10° NE daylight
05 Jul - 12:06:41 10° NW 12:09:46 37° NNE 12:12:51 10° E daylight
05 Jul - 13:43:22 10° WNW 13:46:06 25° SW 13:48:50 10° SSE daylight
06 Jul - 04:47:54 10° SSE 04:49:10 12° SE 04:50:25 10° ESE visible
06 Jul - 06:21:55 10° WSW 06:25:10 74° NW 06:28:27 10° NE daylight
06 Jul - 07:59:47 10° WNW 08:02:04 17° NNW 08:04:21 10° NNE daylight
06 Jul - 09:38:01 10° NNW 09:39:31 12° N 09:41:01 10° NNE daylight
06 Jul - 11:14:04 10° NW 11:16:50 25° NNE 11:19:36 10° E daylight
06 Jul - 12:50:16 10° WNW 12:53:26 49° SW 12:56:36 10° SE daylight
